Flag for Brazil Weather past 2 weeks in Campos, Rio de Janeiro, Brazil


Passing clouds.

Feels Like: N/A
Forecast: 71 / 89 °F
Wind: N/A

Location: Rio De Janeiro Airport

Current Time: Oct 14, 2015 at 2:12:12 AM

Latest Report: Oct 14, 2015 at 1:00 AM

Visibility: 6 mi

Pressure: 30.01 "Hg

Humidity: N/A

Dew point: N/A

Location of CamposLocation

Historic Weather in Campos — Graph


Campos temperature yesterday

Maximum temperature yesterday: 86 °F (at 11:00 AM)
Minimum temperature yesterday: 73 °F (at 1:00 AM)
Average temperature yesterday: 77 °F

Past Weeks' High & Low Weather Summary

High90 °F (Oct 8, 12:00 PM)100% (Oct 1, 7:00 PM)30.18 "Hg (Oct 1, 7:00 PM)
Low66 °F (Oct 5, 6:00 AM)43% (Oct 8, 12:00 PM)29.77 "Hg (Oct 3, 3:00 AM)
Average76 °F80%29.96 "Hg
* Reported Sep 29 1:00 AM — Oct 14 1:00 AM, Campos, Weather by CustomWeather, © 2015

Note: Actual official high and low records may vary slightly from our data, if they occured in-between our weather recording intervals... More about our weather records


Campos weather history for previous 24 hours

Time TempWeatherWind HumidityBarometerVisibility
1:00 AM
Wed, Oct 14
N/APassing clouds.N/AN/A30.01 "Hg6 mi
12:00 AMN/APassing clouds.N/AN/A30.04 "HgN/A
11:00 PM
Tue, Oct 13
73 °FPassing clouds.8 mph94%30.04 "HgN/A
10:00 PM73 °FPassing clouds.8 mph94%30.04 "HgN/A
9:00 PM73 °FPassing clouds.10 mph94%30.07 "HgN/A
8:00 PM75 °FPassing clouds.12 mph89%30.04 "HgN/A
7:00 PM75 °FPassing clouds.15 mph89%30.04 "HgN/A
6:00 PM77 °FPartly cloudy.13 mph79%30.01 "HgN/A
5:00 PM81 °FPassing clouds.7 mph66%29.98 "HgN/A
4:00 PM81 °FPassing clouds.8 mph66%29.98 "HgN/A
3:00 PM81 °FPassing clouds.10 mph74%29.98 "HgN/A
2:00 PM81 °FScattered clouds.10 mph70%29.98 "HgN/A
1:00 PM79 °FScattered clouds.9 mph79%30.01 "HgN/A
12:00 PM82 °FScattered clouds.14 mph74%30.04 "HgN/A
11:00 AM86 °FBroken clouds.12 mph55%30.07 "HgN/A
10:00 AM81 °FPartly sunny.12 mph70%30.07 "Hg6 mi
9:00 AM84 °FPartly sunny.7 mph62%30.07 "Hg6 mi
8:00 AM79 °FPartly sunny.6 mph79%30.07 "Hg5 mi
7:00 AM77 °FPartly sunny.3 mph89%30.04 "Hg5 mi
6:00 AM73 °FPartly sunny.No wind94%30.01 "Hg5 mi
5:00 AM73 °FPartly sunny.No wind89%29.98 "Hg4 mi
4:00 AM73 °FPassing clouds.3 mph94%29.98 "Hg5 mi
3:00 AM75 °FPassing clouds.No wind83%29.95 "Hg4 mi
2:00 AM73 °FPassing clouds.5 mph89%29.95 "Hg4 mi
Weather by CustomWeather, © 2015

See weather overviewHow to use our weather pages